Time,TemperatureF,DewpointF,PressureIn,WindDirection,WindDirectionDegrees,WindSpeedMPH,WindSpeedGustMPH,Humidity,HourlyPrecipIn,Conditions,Clouds,dailyrainin,SoftwareType,DateUTC
2013-07-24 00:01:00,68.0,66.0,-100.00,SE,124,0.0,22.0,98,0.00,,,-99.99,,2013-07-24 04:01:00,
2013-07-24 00:52:00,68.0,66.0,-100.00,East,79,0.0,22.0,98,0.00,,,-99.99,,2013-07-24 04:52:00,
2013-07-24 01:02:00,68.0,66.0,-100.00,East,97,0.0,22.0,98,0.00,,,-99.99,,2013-07-24 05:02:00,
2013-07-24 01:22:00,68.0,66.0,-100.00,East,88,0.0,22.0,98,0.00,,,-99.99,,2013-07-24 05:22:00,
2013-07-24 01:43:00,68.0,66.0,-100.00,WSW,256,0.0,22.0,98,0.00,,,-99.99,,2013-07-24 05:43:00,
2013-07-24 02:12:00,69.0,66.0,-100.00,West,266,2.0,22.0,93,0.00,,,-99.99,,2013-07-24 06:12:00,
2013-07-24 02:24:00,69.0,64.0,-100.00,SW,232,3.0,22.0,90,0.00,,,-99.99,,2013-07-24 06:24:00,
2013-07-24 02:34:00,69.0,64.0,-100.00,SW,216,5.0,22.0,90,0.00,,,-99.99,,2013-07-24 06:34:00,
2013-07-24 02:43:00,68.0,64.0,-100.00,SW,221,4.0,22.0,90,0.00,,,-99.99,,2013-07-24 06:43:00,
2013-07-24 05:12:00,64.0,59.0,-100.00,WSW,240,2.0,8.0,86,0.00,,,-99.99,,2013-07-24 09:12:00,
2013-07-24 05:32:00,64.0,57.0,-100.00,SW,217,2.0,8.0,85,0.00,,,-99.99,,2013-07-24 09:32:00,
2013-07-24 05:53:00,65.0,59.0,-100.00,SSW,200,2.0,8.0,85,0.00,,,-99.99,,2013-07-24 09:53:00,
2013-07-24 06:12:00,64.0,57.0,-100.00,SW,221,4.0,8.0,84,0.00,,,-99.99,,2013-07-24 10:12:00,
2013-07-24 10:32:00,69.0,59.0,-100.00,SW,214,4.0,8.0,72,0.00,,,-99.99,,2013-07-24 14:32:00,
2013-07-24 10:55:00,67.0,55.0,-100.00,SSE,156,4.0,8.0,69,0.00,,,-99.99,,2013-07-24 14:55:00,
2013-07-24 11:02:00,69.0,57.0,-100.00,WSW,247,4.0,8.0,71,0.00,,,-99.99,,2013-07-24 15:02:00,
2013-07-24 15:02:00,71.0,54.0,-100.00,SSE,160,2.0,8.0,56,0.00,,,-99.99,,2013-07-24 19:02:00,
2013-07-24 15:12:00,68.0,52.0,-100.00,West,271,5.0,10.0,60,0.00,,,-99.99,,2013-07-24 19:12:00,
2013-07-24 17:22:00,70.0,54.0,-100.00,West,261,3.0,10.0,56,0.00,,,-99.99,,2013-07-24 21:22:00,
2013-07-24 17:32:00,73.0,55.0,-100.00,SW,220,2.0,10.0,56,0.00,,,-99.99,,2013-07-24 21:32:00,
2013-07-24 17:44:00,71.0,52.0,-100.00,SW,231,3.0,10.0,54,0.00,,,-99.99,,2013-07-24 21:44:00,
2013-07-24 17:52:00,71.0,54.0,-100.00,SW,231,3.0,10.0,56,0.00,,,-99.99,,2013-07-24 21:52:00,
2013-07-24 18:12:00,70.0,54.0,-100.00,SSW,211,2.0,10.0,58,0.00,,,-99.99,,2013-07-24 22:12:00,
2013-07-24 18:22:00,72.0,54.0,-100.00,SSW,194,3.0,10.0,53,0.00,,,-99.99,,2013-07-24 22:22:00,
2013-07-24 18:32:00,72.0,52.0,-100.00,South,190,2.0,10.0,50,0.00,,,-99.99,,2013-07-24 22:32:00,
2013-07-24 18:43:00,72.0,54.0,-100.00,West,279,5.0,10.0,55,0.00,,,-99.99,,2013-07-24 22:43:00,
2013-07-24 18:53:00,69.0,52.0,-100.00,WNW,283,4.0,10.0,56,0.00,,,-99.99,,2013-07-24 22:53:00,
2013-07-24 19:02:00,69.0,52.0,-100.00,SW,235,4.0,10.0,56,0.00,,,-99.99,,2013-07-24 23:02:00,
2013-07-24 19:12:00,68.0,50.0,-100.00,SW,230,2.0,10.0,55,0.00,,,-99.99,,2013-07-24 23:12:00,
2013-07-24 19:22:00,69.0,52.0,-100.00,SSE,165,1.0,10.0,55,0.00,,,-99.99,,2013-07-24 23:22:00,
2013-07-24 20:02:00,67.0,50.0,-100.00,SW,218,2.0,10.0,58,0.00,,,-99.99,,2013-07-25 00:02:00,
2013-07-24 20:12:00,67.0,52.0,-100.00,WSW,247,2.0,10.0,59,0.00,,,-99.99,,2013-07-25 00:12:00,
2013-07-24 20:22:00,68.0,52.0,-100.00,SSW,194,1.0,10.0,60,0.00,,,-99.99,,2013-07-25 00:22:00,
2013-07-24 20:53:00,67.0,54.0,-100.00,WSW,242,2.0,10.0,66,0.00,,,-99.99,,2013-07-25 00:53:00,
2013-07-24 21:22:00,66.0,55.0,-100.00,WSW,237,2.0,10.0,72,0.00,,,-99.99,,2013-07-25 01:22:00,
2013-07-24 22:02:00,64.0,57.0,-100.00,SW,220,1.0,10.0,80,0.00,,,-99.99,,2013-07-25 02:02:00,
2013-07-24 22:12:00,64.0,57.0,-100.00,SW,220,1.0,10.0,80,0.00,,,-99.99,,2013-07-25 02:12:00,
2013-07-24 23:52:00,58.0,52.0,-100.00,WSW,245,2.0,10.0,84,0.00,,,-99.99,,2013-07-25 03:52:00,